This is the latest recevied weather packets stored in our database for station/object N5PA. If no packets are shown the sender has not sent any weather packets the latest 10 day(s).
| Time | Temp. | Humidity | Pressure | Rain* | Wind** | Luminosity | Snow |
|---|---|---|---|---|---|---|---|
| 1777749608 | 20.56° C | 37% | 1016.9 hPa | 0 mm | - | 1025 W/m² | - |
| 1777749309 | 20.56° C | 34% | 1017.1 hPa | 0 mm | - | 1023 W/m² | - |
| 1777749008 | 20.56° C | 37% | 1017 hPa | 0 mm | - | 1023 W/m² | - |
| 1777748708 | 20.56° C | 40% | 1016.9 hPa | 0 mm | - | 1025 W/m² | - |
| 1777748409 | 20.56° C | 35% | 1017 hPa | 0 mm | - | 1018 W/m² | - |
| 1777748108 | 20.56° C | 34% | 1017 hPa | 0 mm | - | 1025 W/m² | - |
| 1777747808 | 20.56° C | 36% | 1017.1 hPa | 0 mm | - | 1023 W/m² | - |
| 1777747508 | 20° C | 39% | 1017.2 hPa | 0 mm | - | 1021 W/m² | - |
| 1777747209 | 20° C | 36% | 1017.2 hPa | 0 mm | - | 1021 W/m² | - |
| 1777746907 | 20° C | 37% | 1017.2 hPa | 0 mm | - | 1021 W/m² | - |
| 1777746608 | 20° C | 36% | 1017.1 hPa | 0 mm | - | 1023 W/m² | - |
| 1777746308 | 20° C | 36% | 1017.1 hPa | 0 mm | - | 1025 W/m² | - |
| 1777746008 | 20° C | 38% | 1017.1 hPa | 0 mm | - | 1023 W/m² | - |
| 1777745709 | 20° C | 43% | 1017.2 hPa | 0 mm | - | 1021 W/m² | - |
| 1777745408 | 20° C | 41% | 1017.2 hPa | 0 mm | - | 1023 W/m² | - |
| 1777745108 | 20° C | 39% | 1017.2 hPa | 0 mm | - | 1023 W/m² | - |
| 1777744808 | 20° C | 41% | 1017.3 hPa | 0 mm | - | 1023 W/m² | - |
| 1777744508 | 20° C | 43% | 1017.4 hPa | 0 mm | - | 1025 W/m² | - |
| 1777744208 | 19.44° C | 42% | 1017.4 hPa | 0 mm | - | 1027 W/m² | - |
| 1777743907 | 19.44° C | 40% | 1017.4 hPa | 0 mm | - | 1025 W/m² | - |
| 1777743608 | 19.44° C | 40% | 1017.5 hPa | 0 mm | - | 1025 W/m² | - |
| 1777743308 | 19.44° C | 36% | 1017.4 hPa | 0 mm | - | 1025 W/m² | - |
| 1777743008 | 19.44° C | 44% | 1017.4 hPa | 0 mm | - | 1027 W/m² | - |
| 1777742708 | 18.89° C | 42% | 1017.5 hPa | 0 mm | - | 1028 W/m² | - |
| 1777742408 | 18.89° C | 42% | 1017.6 hPa | 0 mm | - | 1027 W/m² | - |
* Rain latest hour (hover to see other rain measurements)
** Current wind speed in m/s (hover to see current wind gust speed)